Location: Newark
(49.8969°N, 3.3422°E)
Time: 00:34:07
(UTC+00:00)

Explorer 7 - Pass Details

Date: 29 January 2020
Orbit: 485 x 679 km, 50.3° (Epoch: 24 February)

Event Time Altitude Azimuth Distance (km) Brightness Sun altitude
Rises 19:35:53 0° 187° (S) 2,619 - -29.0°
Reaches altitude 10° 19:40:05 10° 143° (SE) 1,698 - -29.7°
Maximum altitude 19:40:36 10° 136° (SE) 1,680 - -29.8°
Drops below altitude 10° 19:41:07 10° 128° (SE) 1,691 - -29.8°
Sets 19:45:13 0° 84° (E) 2,556 - -30.5°
